Regional Weather Roundup
Issued by NWS Charleston, SC

Current Version | Previous Version | Text Only | Print | Product List | Glossary Off
Versions: 1 2 3 4 5 6 7 8 9 10 11 12 13 14 15 16 17 18 19 20 21 22 23 24 25 26 27 28 29 30 31 32 33 34 35 36 37 38 39 40 41 42 43 44 45 46 47 48 49 50
000 ASUS42 KCHS 262125 RWRCHS REGIONAL WEATHER ROUNDUP NATIONAL WEATHER SERVICE CHARLESTON SC 400 PM EST FRI DEC 26 2014 NOTE: "FAIR" INDICATES FEW OR NO CLOUDS BELOW 12,000 FEET WITH NO SIGNIFICANT WEATHER AND/OR OBSTRUCTIONS TO VISIBILITY. NOT ALL STATIONS ARE QUALITY CONTROLLED BY THE NATIONAL WEATHER SERVICE. USE DATA WITH CAUTION...ESPECIALLY DEWPOINT OBSERVATIONS. SCZ027-030-031-034>040-042>050-262200- ...SOUTHEAST SOUTH CAROLINA... CITY SKY/WX TMP DP RH WIND PRES REMARKS N CHARLESTON MOSUNNY 63 43 48 CALM 30.27S WATERFRONT PRK N/A 57 N/A N/A SE7 N/A MOUNT PLEASANT LGT RAIN 61 50 67 CALM 30.28R PINOPOLIS NOT AVBL MONCKS CORNER FAIR 61 46 59 CALM 30.28R SUMMERVILLE FAIR 63 43 48 CALM 30.29R BEAUFORT MCAS PTSUNNY 63 42 46 CALM 30.28R BEAUFORT ARPT FAIR 61 48 63 NE3 30.27S HILTON HEAD IS SUNNY 61 48 63 N3 30.29R WALTERBORO PTCLDY 63 32 31 CALM 30.28S ALLENDALE FAIR 63 39 42 CALM 30.27S ...SOUTHERN MIDLANDS AND PEE DEE... CITY SKY/WX TMP DP RH WIND PRES REMARKS GEORGETOWN NOT AVBL KINGSTREE NOT AVBL ORANGEBURG SUNNY 62 38 40 E5 30.27S BARNWELL FAIR 61 39 44 CALM 30.28S AIKEN FAIR 59 36 41 SE5 30.30S MANNING FAIR 63 43 48 CALM 30.28S COLUMBIA MOSUNNY 60 35 39 CALM 30.28S SUMTER SUNNY 60 35 39 E2 30.26F FLORENCE SUNNY 60 34 37 CALM 30.28F MYRTLE BEACH SUNNY 59 43 55 SE8 30.29S N MYRTLE BEACH SUNNY 58 43 57 S3 30.28R $$ GAZ063-065-086>088-099>101-113>116-118-119-134>141-150-262200- ...SOUTHEAST GEORGIA... CITY SKY/WX TMP DP RH WIND PRES REMARKS SAVANNAH ARPT PTSUNNY 64 43 46 VRB3 30.26F HUNTER AAF PTSUNNY 64 50 61 E5 30.24F FORT STEWART MOSUNNY 64 47 54 NE6 30.24F STATESBORO MOSUNNY 62 42 47 CALM 30.27S SYLVANIA CLEAR 62 41 46 CALM 30.28S CLAXTON FAIR 63 45 51 CALM 30.27R ...CSRA...CENTRAL AND FAR SOUTHEAST GEORGIA... CITY SKY/WX TMP DP RH WIND PRES REMARKS THOMSON SUNNY 61 42 49 CALM 30.32S AUGUSTA-BUSH SUNNY 61 36 39 VRB5 30.27F AUGUSTA-DANIEL SUNNY 60 37 42 S3 30.28S SWAINSBORO FAIR 63 41 45 CALM 30.28R VIDALIA SUNNY 63 41 45 CALM 30.27S EASTMAN FAIR 62 40 45 CALM 30.29S HAZLEHURST FAIR 62 41 45 CALM 30.26R ALMA PTSUNNY 63 42 46 VRB3 30.26R WAYCROSS PTSUNNY 67 46 45 E5 30.25S JESUP FAIR 68 50 52 SE3 30.26R BAXLEY FAIR 63 41 45 NE5 30.26S BRUNSWICK MOSUNNY 63 50 63 E9 30.27R SAINT SIMONS MOSUNNY 62 49 62 NE9 30.25S $$ SCZ027-028-034-036>038-045-046-048>050-GAZ119-141-262200- ...LAKE AND SUPPLEMENTAL COASTAL OBSERVATIONS... STATION/POSITION TIME TEMP WIND PRES WAVE SWELL AIR SEA DIR/SP/G HT/PER HT/PER/DIR (UTC) (F) (DEG/KT/KT) (MB) (FT/S) (FT/S/D) UPR LAKE MARION NOT AVBL WINYAH BAY 2100 56 80/ 5 1025.0S LAKE MURRAY 2100 69 CALM / 1 1024.7F ACE BASIN NERRS 2100 60 CALM 1025.0S FORT PULASKI 2100 56 56 80/ 6/ 7 1025.3F SAPELO ISLAND 2100 61 60/ 7 1024.0S $$ ANZ835-935-AMZ111-154-330-350-352-354-370-450-454-472-262200- ...C-MAN AND BUOY OBSERVATIONS... STATION/POSITION TIME TEMP WIND PRES WAVE SWELL AIR SEA DIR/SP/G HT/PER HT/PER/DIR (UTC) (F) (DEG/KT/KT) (MB) (FT/S) (FT/S/D) BUOY 41004 2100 62 72 20/ 14/ 17 1024.4R 3/ 7 2/ 7 BUOY 41008 2100 58 58 30/ 14/ 16 1024.2F 2/ 3 2/ 80/ 8 FOLLY BEACH CMAN 2100 56 80/ 7/ 8 1025.8R CAPERS NEARSHORE 2000 58 80/ 10/ 10 N/A FRIPP NEARSHORE NOT AVBL STATION/POSITION TIME TEMP WIND PRES WAVE SWELL AIR SEA DIR/SP/G HT/PER HT/PER/DIR (UTC) (F) (DEG/KT/KT) (MB) (FT/S) (FT/S/D) 5E ST. MARYS GA 2100 61 N/A 3/ 4 FRYING PAN BUOY 2100 58 69 30/ 10/ 12 1026.1R 2/ 7 2/140/ 7 BUOY 41025 2100 57 1025.6R 3/ 9 CAPE LOOKOUT NC 2100 56 50/ 3/ 4 1025.1F BUOY 41002 2033 68 74 30/ 8/ 10 1024.5S 3/ 6 3/170/ 6 BUOY 41010 2100 73 76 90/ 6/ 8 1022.3S 3/ 9 3/ 80/ 9 ST AUGUSTINE FL 2100 60 360/ 14/ 16 1024.0F $$

USA.gov is the U.S. government's official web portal to all federal, state and local government web resources and services.